Regional Weather Roundup
Issued by NWS

Home | Current Version | Previous Version | Text Only | Print | Product List | Glossary Off
Versions: 1 2 3 4 5 6 7 8 9 10 11 12 13 14 15 16 17 18 19 20 21 22 23 24 25 26 27 28 29 30 31 32 33 34 35 36 37 38 39 40 41 42 43 44 45 46 47 48 49 50

000
ASUS43 KLOT 280200
RWRIL

ILLINOIS REGIONAL WEATHER ROUNDUP
NATIONAL WEATHER SERVICE CHICAGO/ROMEOVILLE IL
900 PM CDT WED AUG 27 2014

NOTE: "FAIR" INDICATES FEW OR NO CLOUDS BELOW 12,000 FEET WITH NO
SIGNIFICANT WEATHER AND/OR OBSTRUCTIONS TO VISIBILITY.

* THESE STATIONS ARE NOT UNDER NWS QUALITY CONTROL. THEY ALSO MAY NOT
  REPORT WEATHER SUCH AS PRECIPITATION OR FOG.

ILZ001-002-007-009-015-016-024-280300-
NORTHWEST ILLINOIS

CITY           SKY/WX    TMP DP  RH WIND       PRES   REMARKS
MOLINE         CLEAR     69  63  81 CALM      30.10R
STERLING*      PTCLDY    66  61  82 CALM      30.11R
$$

ILZ003-004-008-010-011-017-018-280300-
NORTH CENTRAL ILLINOIS

CITY           SKY/WX    TMP DP  RH WIND       PRES   REMARKS
ROCKFORD       MOCLDY    71  62  73 NE9       30.13R
$$

ILZ005-006-012>014-019>023-280300-
NORTHEAST ILLINOIS

CITY           SKY/WX    TMP DP  RH WIND       PRES   REMARKS
CHICAGO-OHARE  MOCLDY    70  59  68 NE8       30.12R
CHICAGO-MIDWAY MOCLDY    72  62  71 E7        30.11R
AURORA         PTCLDY    69  62  78 NE7       30.11R
WAUKEGAN       PTCLDY    64  60  87 NE5       30.12R
DUPAGE AIRPORT PTCLDY    68  61  78 CALM      30.12R
WHEELING       PTCLDY    69  62  78 CALM      30.14R
NORTHERLY ISL    N/A     70  61  73 NE10        N/A
$$

LMZ740>746-280300-
SOUTHERN LAKE MICHIGAN

STATION/POSITION SKY/WX   TEMP    WIND        PRES    VSBY  WAVE
                          AIR SEA DIR/SP/G                  HT/PER
                          (F)     (DEG/KT/KT) (MB)    (MI)  (FT/S)
SOUTHERN BUOY              67 70   20/ 14/ 16 1019.6F         1/ 3
WAUKEGAN HARBOR            68      60/  9/ 11   N/A
HARRISON CRIB              69      50/ 10/ 12   N/A
BURNHAM HARBOR             70      50/ 10/ 11   N/A
CALUMET HARBOR             70      30/  8/ 10 1018.6R
MICHIGAN CITY              70      20/ 14/ 17   N/A
MICHIGAN CITY 6N           71 74   50/ 14/ 17   N/A           3/ 4
ST. JOSEPH                 70 73   40/ 12/ 16   N/A           3/ 4
$$

ILZ025>027-034>036-040-047-049-050-058-095>099-280300-
WEST-CENTRAL ILLINOIS

CITY           SKY/WX    TMP DP  RH WIND       PRES   REMARKS
QUINCY         CLOUDY    78  73  84 E3        30.06F HX  81
MACOMB*        MOCLDY    73  71  92 NE3       30.10S
$$

ILZ028>032-037-038-041>044-048-051>054-059>061-280300-
CENTRAL ILLINOIS

CITY           SKY/WX    TMP DP  RH WIND       PRES   REMARKS
DECATUR        CLEAR     74  71  91 NE7       30.09R
PEORIA         CLOUDY    77  65  66 E5        30.09R
SPRINGFIELD    CLOUDY    75  73  93 CALM      30.09R
TAYLORVILLE    NOT AVBL
$$

ILZ033-039-045-046-055>057-062-063-280300-
EAST-CENTRAL ILLINOIS

CITY           SKY/WX    TMP DP  RH WIND       PRES   REMARKS
CHAMPAIGN      PTCLDY    74  67  78 NE7       30.09R
MATTOON        PTCLDY    76  72  87 CALM      30.07R
$$

ILZ079-100>102-280300-
SOUTHWEST ILLINOIS

CITY           SKY/WX    TMP DP  RH WIND       PRES   REMARKS
BELLEVILLE     CLOUDY    73  73  99 E7        30.07S
$$

ILZ064>066-069>071-074>076-080>082-084>086-088>090-092>094-280300-
SOUTH-CENTRAL ILLINOIS

CITY           SKY/WX    TMP DP  RH WIND       PRES   REMARKS
CARBONDALE     CLOUDY    79  69  71 N18G25    30.07R HX  81
MT. VERNON     CLOUDY    75  66  73 NW7G16    30.12R THUNDER
SALEM*         TSTM      74  70  88 W25G31    30.10R
$$

ILZ067-068-072-073-078-083-087-091-280300-
SOUTHEAST ILLINOIS

CITY           SKY/WX    TMP DP  RH WIND       PRES   REMARKS
LAWRENCEVILLE  CLOUDY    78  73  84 CALM      30.05F HX  81
$$

ABBREVIATIONS USED IN REMARKS
   TC - TEMPERATURE IN CELSIUS
  WCI - WIND CHILL INDEX
   HX - HEAT INDEX
  VSB - VISIBILITY
$$



USA.gov is the U.S. government's official web portal to all federal, state and local government web resources and services.